Preview of NWS' New Version of Forecast
This preview is not operational and should not be used for support decisions.

Regional Weather Roundup (RWR)

Issued by National Weather Service (NWS)

                            
000
ASUS42 KTBW 190015
RWRFL 
FLORIDA REGIONAL WEATHER ROUNDUP
NATIONAL WEATHER SERVICE TAMPA BAY RUSKIN FL
800 PM EDT TUE JUN 18 2019

NOTE: "FAIR" INDICATES FEW OR NO CLOUDS BELOW 12,000 FEET WITH NO
SIGNIFICANT WEATHER AND/OR OBSTRUCTIONS TO VISIBILITY.

FLZ001>010-012>015-112-114-115-190100-
PANHANDLE FLORIDA
  
CITY           SKY/WX    TMP DP  RH WIND       PRES   REMARKS
PENSACOLA      FAIR      84  76  76 S10       29.90S                  
PENSACOLA NAS  MOCLDY    83  75  77 S12       29.89F                  
MILTON NAS     MOCLDY    81  76  84 S8        29.91S                  
CRESTVIEW      RAIN      80  74  81 CALM      29.93F                  
DUKE FIELD     FAIR      81  73  76 S9        29.92S                  
VALPARAISO     FAIR      81  74  79 S3        29.91F                  
MARY ESTHER    CLEAR     82  74  77 CALM      29.90F                  
TRI COUNTY     MOCLDY    80  74  81 CALM      29.95S                  
PANAMA CITY    MOCLDY    79  76  90 SE6       29.94S FOG              
TYNDALL AFB    FAIR      81  74  80 S5        29.95R                  
APALACHICOLA   LGT RAIN  76  73  91 N5        29.99R                  

STATION/POSITION SKY/WX   TEMP    WIND        PRES    WAVE   SWELL
                          AIR SEA DIR/SP/G            HT/PER HT/PER
                          (F)     (DEG/KT/KT) (MB)    (FT/S) (FT/S)
30.1N   87.6W                                   N/A     4/ 6
29.2N   88.2W                     220/ 16/ 21 1013.5R   5/ 5
PANAMA CITY BEAC NOT AVBL
TOWER C          NOT AVBL

$$
FLZ011-016>038-118-127-128-134-139-239-190100-
NORTH FLORIDA
  
CITY           SKY/WX    TMP DP  RH WIND       PRES   REMARKS
MARIANNA       FAIR      79  73  82 VRB3      29.94S                  
TALLAHASSEE    HVY RAIN  75  75 100 S3        29.98R FOG              
PERRY          HVY RAIN  80  75  85 NW13      29.99R                  
LIVE OAK       CLEAR     82  73  74 SW6       29.97R                  
CROSS CITY     FAIR      83  76  80 SW6       29.98S                  
LAKE CITY      FAIR      82  73  74 W7        29.98R                  
GAINESVILLE    FAIR      85  75  72 SW6       30.00R                  
PALATKA        FAIR      81  77  89 W3        29.97S                  
MAYPORT NAS    MOCLDY    80  76  87 SW7       29.96R                  
JACKSONVILLE   MOCLDY    80  75  84 W5        29.95R THUNDER          
JAX NAS        MOCLDY    83  74  74 VRB5      29.96R                  
JAX CECIL      PTCLDY    81  77  89 S6        29.96R                  
FERNANDINA BEA FAIR      81  75  82 SW7       29.95S                  
ST AUGUSTINE   FAIR      81  76  84 CALM      29.97R                  
PALM COAST     FAIR      79  76  89 SW7       29.96S                  

STATION/POSITION SKY/WX   TEMP    WIND        PRES    WAVE   SWELL
                          AIR SEA DIR/SP/G            HT/PER HT/PER
                          (F)     (DEG/KT/KT) (MB)    (FT/S) (FT/S)
SHELL POINT      NOT AVBL
KEATON BEACH               81     230/  9/ 13 1015.1S
CEDAR KEY                  83     240/ 10/ 15 1015.7R
FERNANDINA       NOT AVBL
30.7N   81.3W                 83                N/A     3/ 5
MAYPORT          NOT AVBL
31.4N   80.9W              81 83  190/ 16/ 19 1013.6R   3/ 5   2/ 8
ST AUGUSTINE               81 80  200/  3/  4 1014.8R

$$
FLZ040-043>046-052-053-057-058-063-144-190100-
INTERIOR CENTRAL FLORIDA
  
CITY           SKY/WX    TMP DP  RH WIND       PRES   REMARKS
OCALA          FAIR      83  75  77 SW10      29.99R                  
LEESBURG       MOCLDY    77  74  90 W7        30.01R                  
SANFORD        MOCLDY    82  74  76 SW12      29.99S                  
ORLANDO EXEC   LGT RAIN  80  75  84 SW7       30.00S                  
ORLANDO INTL   MOCLDY    80  76  87 NW3       30.01S                  
WINTER HAVEN   FAIR      82  73  74 SW8       30.02R                  
LAKELAND       PTCLDY    82  73  74 SW5       30.01R                  
BARTOW         FAIR      82  73  74 W7        30.01R                  
SEBRING        FAIR      82  75  78 S9        30.02R                  
OKEECHOBEE     FAIR      79  73  83 S9        30.02F                  

$$
FLZ041-047-054-059-064-141-147-190100-
EAST CENTRAL FLORIDA
  
CITY           SKY/WX    TMP DP  RH WIND       PRES   REMARKS
DAYTONA BEACH  MOCLDY    79  78  97 S7        29.97S                  
DELAND         FAIR      79  75  89 SW9       29.98S                  
NEW SMYRNA BEA PTCLDY    77  72  83 SW6       29.98F                  
JFK SPACE CTR  FAIR      77  65  66 S10       29.98F                  
TITUSVILLE     PTCLDY    79  75  89 S9        30.01S                  
CAPE CANAVERAL FAIR      75  13   9 SW7       29.98F                  
PATRICK AFB    FAIR      77  77 100 S6        29.99F                  
MELBOURNE      FAIR      78  73  84 S7        30.00F                  
VERO BEACH     FAIR      78  73  84 SE9       30.02F                  
FT PIERCE      FAIR      79  73  82 SE9       30.02F                  
STUART         PTCLDY    81  72  74 S6        30.05F THUNDER          

STATION/POSITION SKY/WX   TEMP    WIND        PRES    WAVE   SWELL
                          AIR SEA DIR/SP/G            HT/PER HT/PER
                          (F)     (DEG/KT/KT) (MB)    (FT/S) (FT/S)
28.5N   80.2W              77 80  180/ 14/ 16 1015.5F   2/ 8   2/ 8
28.9N   78.5W              81 82  160/ 12/ 14   N/A     3/ 5   2/ 8
TRIDENT PIER     NOT AVBL
28.4N   80.5W                 78                N/A     2/ 4
27.5N   80.2W                 81                N/A     1/14

$$
FLZ050-056-061-142-242-148-248-149-249-151-251-155-255-
160-260-190100-
WEST CENTRAL FLORIDA
  
CITY           SKY/WX    TMP DP  RH WIND       PRES   REMARKS
CRYSTAL RIVER  FAIR      77  73  88 CALM      30.00S                  
INVERNESS      FAIR      77  77 100 CALM      30.01R                  
BROOKSVILLE    FAIR      83  74  74 SW7       30.01R                  
CLEARWATER AIR MOCLDY    82  73  74 SW5       30.01R                  
ST PETE CLEARW FAIR      84  75  74 SW13      30.00R                  
TAMPA INTL     MOCLDY    85  75  72 SW13      30.01R                  
TAMPA EXEC     LGT RAIN  82  77  83 SW6       30.01R                  
PLANT CITY       N/A    N/A N/A N/A MISG        N/A                   
MACDILL AFB    FAIR      84  76  77 SW10      30.01R                  
PETER O KNIGHT CLOUDY    84  77  79 SW8       30.01R                  
ST PETERSBURG  MOCLDY    84  76  76 SW10      29.99R                  
SARASOTA       MOCLDY    84  76  76 SW13      30.00R                  
VENICE         FAIR      86  77  74 S10       30.03R HX  97           

STATION/POSITION SKY/WX   TEMP    WIND        PRES    WAVE   SWELL
                          AIR SEA DIR/SP/G            HT/PER HT/PER
                          (F)     (DEG/KT/KT) (MB)    (FT/S) (FT/S)
27.3N   84.2W                 83                N/A     2/ 5
CLEARWATER BEACH NOT AVBL
MIDDLE TAMPA BAY NOT AVBL
VENICE                     83 84  210/ 12/ 14 1016.6R

$$
FLZ066-069-070-075>078-162-262-165-265-190100-
SOUTHWEST FLORIDA AND KEYS
  
CITY           SKY/WX    TMP DP  RH WIND       PRES   REMARKS
PUNTA GORDA    FAIR      84  74  71 SW12      30.03R                  
FT MYERS       FAIR      83  72  69 S3        30.02R                  
SOUTHWEST INTL FAIR      83  71  67 SE5       30.03R                  
NAPLES         FAIR      77  50  39 SE3       30.04R                  
IMMOKALEE      FAIR      77  73  88 CALM      30.02R                  
MARATHON       FAIR      87  76  69 SE5       30.06R HX  97           
KEY WEST NAS   MOCLDY    86  77  74 SE15      30.05R HX  97           
KEY WEST INTL  FAIR      84  78  82 SE14      30.05R HX  95           

STATION/POSITION SKY/WX   TEMP    WIND        PRES    WAVE   SWELL
                          AIR SEA DIR/SP/G            HT/PER HT/PER
                          (F)     (DEG/KT/KT) (MB)    (FT/S) (FT/S)
NAPLES           NOT AVBL
DRY TORTUGAS               84     130/ 12/ 13 1016.8R
SAND KEY                   83                 1017.4R
SOMBRERO KEY               83                 1017.3R

$$
FLZ067-068-071>074-168-172>174-190100-
SOUTHEAST FLORIDA 
  
CITY           SKY/WX    TMP DP  RH WIND       PRES   REMARKS
W PALM BEACH   MOCLDY    80  73  79 S7        30.05S                  
FT LAUDER-EXEC LGT RAIN  75  72  90 S3        30.05F                  
FT LAUDERDALE  LGT RAIN  75  73  93 S6        30.04F                  
POMPANO BEACH  LGT RAIN  76  73  91 SW6       30.05F                  
PEMBROKE PINES LGT RAIN  75  71  87 CALM      30.06F                  
OPA LOCKA      LGT RAIN  75  72  90 NE3       30.06F                  
MIAMI          CLOUDY    76  72  87 VRB3      30.05S                  
WEST KENDALL   FAIR      76  51  40 CALM      30.06R                  
HOMESTEAD      CLOUDY    75  72  88 CALM      30.05R                  

STATION/POSITION SKY/WX   TEMP    WIND        PRES    WAVE   SWELL
                          AIR SEA DIR/SP/G            HT/PER HT/PER
                          (F)     (DEG/KT/KT) (MB)    (FT/S) (FT/S)
PORT EVERGLADES            75     180/  3/  4 1017.3F
SETTLEMENT POINT           79     250/  9/  9 1017.7F

$$